パンスターズ彗星

C/2017 U4 ( PanSTARRS )

English version
Home page
Updated on August 14, 2020

---------------------------------------------------------------------

・ プロフィール

発見日 2017年10月27日
発見光度 21.7等
発見者 Pan-STARRS 1 telescope (Haleakala)

・ 写真集

・ 軌道要素

Epoch 2018 Oct. 9.0 TT = JDT 2458400.5
T 2018 Sept. 25.26265 TT                                Bell
q   7.7242821            (2000.0)            P               Q
z  -0.0004784      Peri.  159.14925     +0.07898160     +0.93755976
 +/-0.0000029      Node   245.95090     +0.85404046     +0.11162569
e   1.0036954      Incl.  158.22659     +0.51417585     -0.32942586
From 70 observations 2017 Jan. 2-2020 Feb. 26, mean residual 0".4.

・ 光度変化

        m1 = -6.0 + 5 logΔ + 25 log r(t + 100)

---------------------------------------------------------------------

軌道要素はM.P.E.C. 2020-E26に掲載されたものです。
光度グラフはComet for Windowsで作成したものです。

---------------------------------------------------------------------

Copyright(C) Seiichi Yoshida (comet@aerith.net). All rights reserved.